Satellite-Ground Cal/Val Region Overpasses Predictions

Prediction of Satellite NPP Overpassing Cal/Val Region: PacNW

Region Location: (Latitude: 10.00, Longitude: 139.50) to (Latitude: 22.70, Longitude: 165.60).

Table of predicted overpasses for the next 14.0 days since TLE Epoch: 4/11/2021
Interval Starting Time Starting Location Ending Time Ending Location
1 04/11/2021 02:51:57 ( 12.14, 156.28) 04/11/2021 02:54:56 ( 22.65, 153.77)
2 04/11/2021 15:23:14 ( 22.67, 154.01) 04/11/2021 15:26:49 ( 10.05, 151.00)
3 04/12/2021 02:32:19 ( 10.02, 161.53) 04/12/2021 02:35:55 ( 22.70, 158.51)
4 04/12/2021 15:04:11 ( 22.68, 158.77) 04/12/2021 15:07:46 ( 10.06, 155.76)
5 04/13/2021 02:14:08 ( 13.06, 165.59) 04/13/2021 02:16:52 ( 22.69, 163.28)
6 04/13/2021 03:54:46 ( 10.02, 140.92) 04/13/2021 03:56:29 ( 16.07, 139.51)
7 04/13/2021 14:45:09 ( 22.69, 163.53) 04/13/2021 14:48:45 ( 10.01, 160.51)
8 04/14/2021 03:35:44 ( 10.01, 145.68) 04/14/2021 03:39:20 ( 22.69, 142.66)
9 04/14/2021 14:29:19 ( 11.43, 165.60) 04/14/2021 14:29:43 ( 10.02, 165.27)
10 04/14/2021 16:07:37 ( 22.69, 142.92) 04/14/2021 16:11:13 ( 10.01, 139.90)
11 04/15/2021 03:16:42 ( 10.05, 150.43) 04/15/2021 03:20:17 ( 22.68, 147.42)
12 04/15/2021 15:48:34 ( 22.70, 147.68) 04/15/2021 15:52:10 ( 10.02, 144.66)
13 04/16/2021 02:57:40 ( 10.05, 155.19) 04/16/2021 03:01:15 ( 22.67, 152.19)
14 04/16/2021 15:29:33 ( 22.65, 152.43) 04/16/2021 15:33:08 ( 10.03, 149.42)
15 04/17/2021 02:38:37 ( 10.04, 159.95) 04/17/2021 02:42:12 ( 22.66, 156.95)
16 04/17/2021 15:10:30 ( 22.66, 157.19) 04/17/2021 15:14:05 ( 10.04, 154.18)
17 04/18/2021 02:19:35 ( 10.03, 164.71) 04/18/2021 02:23:10 ( 22.65, 161.71)
18 04/18/2021 14:51:28 ( 22.67, 161.95) 04/18/2021 14:55:03 ( 10.05, 158.95)
19 04/19/2021 03:42:02 ( 10.03, 144.10) 04/19/2021 03:45:37 ( 22.65, 141.10)
20 04/19/2021 14:33:43 ( 18.10, 165.59) 04/19/2021 14:36:00 ( 10.05, 163.71)
21 04/19/2021 16:13:55 ( 22.67, 141.34) 04/19/2021 16:16:04 ( 15.10, 139.50)
22 04/20/2021 03:23:00 ( 10.02, 148.86) 04/20/2021 03:26:36 ( 22.70, 145.84)
23 04/20/2021 15:54:53 ( 22.68, 146.10) 04/20/2021 15:58:28 ( 10.06, 143.09)
24 04/21/2021 03:03:57 ( 10.01, 153.62) 04/21/2021 03:07:33 ( 22.69, 150.61)
25 04/21/2021 15:35:50 ( 22.68, 150.86) 04/21/2021 15:39:26 ( 10.01, 147.84)
26 04/22/2021 02:44:55 ( 10.00, 158.38) 04/22/2021 02:48:31 ( 22.68, 155.37)
27 04/22/2021 15:16:48 ( 22.69, 155.62) 04/22/2021 15:20:24 ( 10.01, 152.60)
28 04/23/2021 02:25:54 ( 10.05, 163.13) 04/23/2021 02:29:29 ( 22.68, 160.13)
29 04/23/2021 14:57:46 ( 22.64, 160.37) 04/23/2021 15:01:21 ( 10.02, 157.37)
30 04/24/2021 02:09:38 ( 19.85, 165.59) 04/24/2021 02:10:26 ( 22.67, 164.89)
31 04/24/2021 03:48:21 ( 10.05, 142.52) 04/24/2021 03:51:56 ( 22.68, 139.51)
32 04/24/2021 14:38:44 ( 22.65, 165.13) 04/24/2021 14:42:19 ( 10.03, 162.13)
